TimeCST,TemperatureF,Dew PointF,Humidity,Sea Level PressureIn,VisibilityMPH,Wind Direction,Wind SpeedMPH,Gust SpeedMPH,PrecipitationIn,Events,Conditions,WindDirDegrees,DateUTC
12:15 AM,53.6,44.6,72,29.78,10.0,South,10.4,-,N/A,,Clear,180,2011-11-25 06:15:00
1:15 AM,51.8,44.6,76,29.77,10.0,South,10.4,17.3,N/A,,Clear,180,2011-11-25 07:15:00
1:35 AM,51.8,44.6,76,29.77,10.0,SSE,9.2,-,N/A,,Clear,160,2011-11-25 07:35:00
2:15 AM,50.0,44.6,82,29.77,10.0,South,6.9,-,N/A,,Clear,180,2011-11-25 08:15:00
2:35 AM,50.0,44.6,82,29.76,10.0,SSE,8.1,-,N/A,,Clear,160,2011-11-25 08:35:00
2:55 AM,50.0,44.6,82,29.76,10.0,South,10.4,-,N/A,,Clear,170,2011-11-25 08:55:00
3:15 AM,48.2,44.6,87,29.76,10.0,South,9.2,-,N/A,,Clear,170,2011-11-25 09:15:00
3:35 AM,48.2,44.6,87,29.76,10.0,South,9.2,-,N/A,,Clear,180,2011-11-25 09:35:00
4:35 AM,48.2,44.6,87,29.76,10.0,South,9.2,-,N/A,,Clear,180,2011-11-25 10:35:00
4:55 AM,46.4,44.6,93,29.76,10.0,South,8.1,-,N/A,,Clear,170,2011-11-25 10:55:00
5:15 AM,46.4,42.8,87,29.76,10.0,South,6.9,-,N/A,,Clear,180,2011-11-25 11:15:00
5:35 AM,46.4,42.8,87,29.74,7.0,SSE,5.8,-,N/A,,Clear,160,2011-11-25 11:35:00
5:55 AM,46.4,42.8,87,29.75,7.0,South,10.4,-,N/A,,Clear,170,2011-11-25 11:55:00
6:15 AM,46.4,42.8,87,29.74,7.0,South,10.4,-,N/A,,Clear,170,2011-11-25 12:15:00
6:35 AM,46.4,42.8,87,29.74,7.0,SSE,10.4,-,N/A,,Clear,160,2011-11-25 12:35:00
6:55 AM,44.6,42.8,93,29.74,7.0,SSE,9.2,-,N/A,,Clear,160,2011-11-25 12:55:00
7:15 AM,44.6,42.8,93,29.74,5.0,SSE,10.4,-,N/A,,Scattered Clouds,160,2011-11-25 13:15:00
7:55 AM,46.4,44.6,93,29.75,5.0,South,12.7,16.1,N/A,,Overcast,190,2011-11-25 13:55:00
8:15 AM,48.2,44.6,87,29.75,4.0,South,8.1,-,N/A,,Overcast,190,2011-11-25 14:15:00
8:35 AM,48.2,44.6,87,29.74,4.0,South,9.2,-,N/A,,Overcast,180,2011-11-25 14:35:00
8:55 AM,50.0,46.4,87,29.76,5.0,South,10.4,16.1,N/A,,Overcast,180,2011-11-25 14:55:00
9:15 AM,50.0,46.4,87,29.75,5.0,South,8.1,-,N/A,,Overcast,180,2011-11-25 15:15:00
9:35 AM,50.0,46.4,87,29.75,5.0,South,10.4,-,N/A,,Overcast,190,2011-11-25 15:35:00
9:55 AM,51.8,46.4,82,29.74,5.0,South,9.2,-,N/A,,Haze,180,2011-11-25 15:55:00
10:15 AM,51.8,46.4,82,29.74,5.0,South,12.7,20.7,N/A,,Haze,180,2011-11-25 16:15:00
10:35 AM,53.6,46.4,77,29.73,5.0,South,12.7,19.6,N/A,,Haze,180,2011-11-25 16:35:00
11:15 AM,53.6,46.4,77,29.72,7.0,South,15.0,20.7,N/A,,Overcast,170,2011-11-25 17:15:00
11:35 AM,53.6,46.4,77,29.71,7.0,South,11.5,-,N/A,,Overcast,190,2011-11-25 17:35:00
11:55 AM,53.6,46.4,77,29.68,7.0,South,12.7,-,N/A,,Overcast,180,2011-11-25 17:55:00
12:15 PM,55.4,46.4,72,29.67,7.0,South,12.7,16.1,N/A,,Mostly Cloudy,180,2011-11-25 18:15:00
12:35 PM,55.4,46.4,72,29.69,7.0,South,17.3,21.9,N/A,,Overcast,190,2011-11-25 18:35:00
12:55 PM,55.4,44.6,67,29.69,7.0,South,12.7,21.9,N/A,,Overcast,190,2011-11-25 18:55:00
1:15 PM,55.4,46.4,72,29.65,7.0,South,9.2,18.4,N/A,,Overcast,190,2011-11-25 19:15:00
1:35 PM,55.4,46.4,72,29.64,10.0,SSW,10.4,-,N/A,,Overcast,200,2011-11-25 19:35:00
1:55 PM,55.4,44.6,67,29.64,10.0,South,10.4,-,N/A,,Overcast,170,2011-11-25 19:55:00
2:15 PM,57.2,44.6,63,29.66,10.0,South,8.1,18.4,N/A,,Mostly Cloudy,190,2011-11-25 20:15:00
2:35 PM,57.2,44.6,63,29.61,10.0,South,6.9,-,N/A,,Scattered Clouds,180,2011-11-25 20:35:00
3:15 PM,55.4,44.6,67,29.65,10.0,South,13.8,18.4,N/A,,Overcast,180,2011-11-25 21:15:00
3:35 PM,55.4,44.6,67,29.64,10.0,South,9.2,-,N/A,,Overcast,190,2011-11-25 21:35:00
3:55 PM,55.4,44.6,67,29.64,10.0,South,8.1,-,N/A,,Overcast,180,2011-11-25 21:55:00
4:15 PM,55.4,44.6,67,29.65,10.0,SSW,8.1,-,N/A,,Overcast,200,2011-11-25 22:15:00
4:35 PM,55.4,44.6,67,29.64,10.0,South,5.8,-,N/A,,Overcast,190,2011-11-25 22:35:00
4:55 PM,55.4,44.6,67,29.63,10.0,Calm,Calm,-,N/A,,Scattered Clouds,0,2011-11-25 22:55:00
5:15 PM,53.6,44.6,72,29.63,10.0,SSE,4.6,-,N/A,,Mostly Cloudy,160,2011-11-25 23:15:00
5:35 PM,53.6,44.6,72,29.63,10.0,South,4.6,-,N/A,,Overcast,170,2011-11-25 23:35:00
5:55 PM,53.6,44.6,72,29.64,10.0,South,3.5,-,N/A,,Overcast,180,2011-11-25 23:55:00
6:15 PM,53.6,44.6,72,29.64,10.0,South,4.6,-,N/A,,Overcast,170,2011-11-26 00:15:00
6:35 PM,53.6,44.6,72,29.63,10.0,SSE,5.8,-,N/A,,Overcast,160,2011-11-26 00:35:00
7:35 PM,53.6,44.6,72,29.63,10.0,Calm,Calm,-,N/A,,Overcast,0,2011-11-26 01:35:00
8:15 PM,51.8,44.6,76,29.63,10.0,SW,3.5,-,N/A,,Overcast,230,2011-11-26 02:15:00
8:55 PM,51.8,44.6,76,29.65,10.0,SW,3.5,-,N/A,,Overcast,230,2011-11-26 02:55:00
9:15 PM,51.8,44.6,76,29.65,10.0,WSW,3.5,-,N/A,,Overcast,240,2011-11-26 03:15:00
9:55 PM,51.8,44.6,76,29.66,10.0,South,4.6,-,N/A,,Overcast,170,2011-11-26 03:55:00
10:15 PM,51.8,44.6,76,29.67,10.0,South,3.5,-,N/A,,Overcast,190,2011-11-26 04:15:00
10:35 PM,51.8,44.6,76,29.69,10.0,South,5.8,-,N/A,,Overcast,180,2011-11-26 04:35:00
10:55 PM,50.0,44.6,82,29.68,10.0,SSW,4.6,-,N/A,,Overcast,210,2011-11-26 04:55:00
11:15 PM,50.0,42.8,76,29.70,10.0,South,6.9,-,N/A,,Overcast,180,2011-11-26 05:15:00